Home   Weather   Lüneburg   Past weeks

Flag for Germany Past Weather in Lüneburg, Lower Saxony, Germany — Yesterday and Last 2 Weeks

46 °F

Broken clouds.

Feels Like: 46 °F
Forecast: 38 / 49 °F
Wind: 2 mph from North

Location: Fassberg

Current Time: Oct 21, 2016 at 4:57:53 PM

Latest Report: Oct 21, 2016 at 4:20 PM

Visibility: 5 mi

Pressure: 29.89 "Hg

Humidity: 93%

Dew Point: 45 °F

Location of LüneburgLocation

Past Weather in Lüneburg — Graph


Lüneburg Temperature Yesterday

Maximum temperature yesterday: 46 °F (at 11:20 AM)
Minimum temperature yesterday: 39 °F (at 11:20 PM)
Average temperature yesterday: 45 °F

High & Low Weather Summary for the Past Weeks

High63 °F (Oct 16, 2:20 PM)100% (Oct 8, 10:20 PM)30.27 "Hg (Oct 8, 10:20 PM)
Low36 °F (Oct 9, 1:20 AM)54% (Oct 10, 3:20 PM)29.77 "Hg (Oct 15, 5:20 AM)
Average48 °F88%30.10 "Hg
* Reported Oct 6 3:20 PM — Oct 21 3:20 PM, Lüneburg, Weather by CustomWeather, © 2016

Note: Actual official high and low records may vary slightly from our data, if they occured in-between our weather recording intervals... More about our weather records


Lüneburg Weather History for the Previous 24 Hours

Scroll right to see more
Time TempWeatherWind HumidityBarometerVisibility
3:20 PM
Fri, Oct 21
46 °FBroken clouds.3 mph93%29.89 "Hg5 mi
2:20 PM46 °FFog.5 mph93%29.89 "Hg3 mi
1:20 PM46 °FDrizzle. Fog.2 mph93%29.89 "Hg1 mi
12:20 PM46 °FLight rain. Fog.3 mph93%29.89 "Hg2 mi
11:20 AM46 °FRain. Fog.5 mph93%29.89 "Hg2 mi
10:20 AM45 °FLight rain. Fog.6 mph93%29.89 "Hg1 mi
9:20 AM45 °FFog.6 mph93%29.89 "Hg1 mi
8:20 AM45 °FFog.3 mph93%29.89 "Hg1 mi
7:20 AM45 °FFog.6 mph93%29.89 "Hg2 mi
6:20 AM45 °FFog.7 mph93%29.89 "Hg2 mi
5:20 AM45 °FFog.5 mph93%29.92 "Hg2 mi
4:20 AM45 °FFog.3 mph93%29.92 "Hg1 mi
3:20 AM43 °FFog.3 mph100%29.92 "Hg1 mi
2:20 AM43 °FFog.1 mph100%29.95 "Hg1 mi
1:20 AM41 °FFog.1 mph100%29.95 "Hg1 mi
12:20 AM41 °FFog.1 mph100%29.95 "Hg1 mi
11:20 PM
Thu, Oct 20
39 °FFog.6 mph100%29.95 "Hg5 mi
10:20 PM41 °FFog.3 mph100%29.95 "HgN/A
9:20 PM41 °FFog.2 mph93%29.95 "HgN/A
8:20 PM41 °FFog.2 mph100%29.95 "HgN/A
7:20 PM43 °FPartly cloudy.3 mph93%29.95 "HgN/A
6:57 PM45 °FSprinkles. Partly cloudy.7 mph87%29.95 "Hg4 mi
6:46 PM45 °FRain showers. Fog.7 mph93%29.95 "Hg2 mi
6:20 PM45 °FPartly cloudy.6 mph93%29.95 "Hg4 mi
5:20 PM46 °FPartly sunny.3 mph87%29.95 "HgN/A
4:20 PM46 °FBroken clouds.6 mph93%29.92 "HgN/A
Weather by CustomWeather, © 2016

See weather overviewHow to use our weather pages